Wind_Speed
25 24 24 23 24 24 23 23 22 22 22 21 21 20 20 20 20 20 20 22 23 22 23 23 21 19 19 23 21 21 21 17 16 15 13 15 15 14 14 14 12 12 12 13 14 15 18
23 23 22 21 20 20 19 19 19 18 18 18 18 18 19 20 22 23 24 24 23 24 22 21 20 22 22 23 20 19 19 17 15 14 13 13 13 12 12 12 10 11 11 12 14 16 22
21 20 19 19 17 16 15 15 15 16 16 16 17 18 19 21 23 24 22 23 23 21 21 23 24 23 21 19 19 19 19 18 17 16 16 16 14 12 9 10 11 10 10 8 10 16 18
20 19 18 17 15 14 13 12 13 14 15 16 17 19 21 23 23 23 23 23 21 20 24 25 24 19 21 21 20 19 19 18 19 21 21 17 16 16 10 8 7 3 8 3 12 17 19
20 20 19 18 17 14 12 12 13 15 16 18 20 22 22 22 23 23 22 20 21 22 25 23 19 20 21 19 18 18 17 16 15 17 18 19 19 17 15 8 3 4 7 8 10 16 20
18 19 19 18 18 16 14 14 15 17 20 22 23 22 23 23 22 21 18 19 23 23 22 20 18 19 18 17 18 16 16 14 14 16 12 10 15 18 20 20 18 11 9 6 9 13 18
14 15 17 18 17 16 15 14 16 20 23 24 23 23 22 21 19 18 19 18 20 20 18 18 18 17 16 15 14 15 14 11 7 13 14 15 20 15 16 17 16 11 8 8 10 12 15
14 14 14 16 16 16 15 14 14 18 21 22 23 22 20 18 16 16 19 17 18 16 15 16 15 15 14 14 14 14 10 7 11 13 11 14 14 13 14 16 16 14 10 9 11 12 16
12 13 14 14 15 14 13 13 11 13 17 21 21 19 17 15 14 14 18 14 16 15 12 14 12 12 11 11 11 10 9 9 10 11 15 17 16 15 15 13 12 13 12 12 13 10 14
7 8 9 11 13 13 12 10 11 9 12 16 18 17 15 12 11 14 13 14 12 14 11 12 10 9 9 8 8 8 8 9 11 12 14 14 14 14 14 14 13 13 14 14 14 10 11
4 5 5 6 8 10 11 10 8 9 9 11 14 14 12 10 10 13 13 12 10 9 11 8 7 6 5 4 4 6 7 8 11 13 13 13 13 15 15 15 15 15 14 14 14 11 12
2 1 3 3 4 6 8 10 8 7 9 10 11 12 11 10 9 10 12 11 9 7 8 6 4 2 1 1 3 5 7 10 12 13 14 14 14 14 15 18 17 14 12 13 14 13 14
3 2 1 1 1 2 4 5 7 6 6 8 10 11 10 10 8 9 10 11 9 8 6 7 6 5 4 4 6 7 9 11 12 13 12 10 12 15 17 17 17 18 17 15 15 16 17
4 4 3 4 4 2 2 1 3 4 4 5 8 10 11 10 10 9 9 10 12 12 9 7 8 8 8 8 10 12 12 10 14 14 15 18 16 15 16 19 20 20 19 17 14 13 13
4 6 5 5 6 6 5 3 2 0 1 2 5 9 11 12 12 11 10 11 11 11 11 13 13 13 13 13 13 14 14 16 16 15 16 18 16 18 19 20 21 23 22 18 16 13 13
5 4 6 7 7 7 7 7 6 5 4 3 2 4 8 12 14 14 13 13 12 13 13 14 16 14 20 14 16 17 16 16 17 17 17 18 19 17 17 19 20 22 20 19 16 15 13
5 5 5 8 9 8 9 8 8 7 7 7 5 5 6 9 13 15 17 17 13 16 17 17 17 17 18 20 17 21 18 17 19 19 18 20 21 21 19 20 20 21 21 18 18 16 17
8 6 5 7 9 11 9 10 8 9 9 8 8 8 8 8 9 11 14 13 15 19 21 20 21 20 21 22 22 23 21 20 20 20 20 22 22 22 22 23 23 22 24 24 22 18 19
9 9 7 6 8 11 12 11 11 10 10 10 8 9 10 9 9 11 11 11 14 14 18 19 22 22 23 25 25 26 25 22 24 23 23 23 23 22 22 24 25 24 21 20 21 18 17
12 10 10 7 8 9 11 14 12 12 11 11 12 10 10 12 11 11 11 12 13 14 15 16 17 17 20 21 23 25 25 22 23 24 25 25 24 23 21 23 27 24 25 25 19 17 17
16 14 12 11 8 9 11 12 15 14 13 13 13 14 13 12 13 13 13 13 14 14 15 17 17 18 18 18 19 19 19 17 17 20 23 22 20 22 19 24 23 21 23 24 24 18 16
20 18 16 15 13 10 10 12 14 14 14 14 15 15 14 15 15 15 16 16 16 16 14 18 17 19 18 19 19 19 19 18 15 13 20 20 22 23 19 23 20 17 21 22 21 21 19
24 21 21 18 17 14 12 12 14 14 14 14 16 15 16 16 16 17 18 19 19 17 16 17 16 18 20 18 20 18 18 18 18 15 16 17 20 22 17 20 18 16 18 20 19 19 21
27 26 24 23 21 20 16 14 14 16 16 15 16 16 16 18 19 18 18 17 21 21 23 17 17 19 18 19 18 17 16 16 17 18 16 17 18 19 17 16 15 18 19 19 16 20 20
31 30 27 26 25 24 22 19 17 17 17 17 15 16 17 19 21 20 20 21 20 20 22 23 16 22 20 18 16 14 15 16 18 17 17 19 20 19 18 15 16 18 17 18 18 17 21
34 33 31 29 28 27 26 25 22 21 19 19 20 17 15 15 18 19 21 20 22 21 19 20 20 20 18 19 16 15 16 16 15 13 16 17 20 19 19 18 16 20 16 20 15 15 17
38 37 35 33 31 30 29 29 28 26 24 22 23 21 18 16 19 17 18 20 20 21 18 16 23 21 18 17 16 16 15 18 16 15 17 17 17 20 21 18 12 17 20 11 14 15 17
41 40 39 37 35 33 32 32 32 30 30 27 28 25 24 21 23 18 20 19 20 20 20 16 21 24 22 20 17 17 16 17 16 19 18 17 17 17 19 20 18 18 14 13 17 22 24
43 43 42 41 40 38 36 34 34 34 33 32 30 30 28 27 25 25 23 21 20 22 23 19 23 24 24 23 23 19 18 19 20 19 22 20 18 19 19 18 25 16 16 16 23 24 27
Wind_Direction
71 73 74 76 79 82 86 88 91 95 98 102 106 107 110 112 113 115 118 118 121 123 123 117 113 110 111 107 100 92 86 82 73 71 70 78 82 88 90 90 83 77 62 47 37 27 20
66 68 70 72 75 79 84 89 93 97 101 104 107 112 114 114 115 118 121 123 124 121 116 111 107 105 107 97 92 89 83 77 71 70 70 76 75 76 79 84 85 82 62 41 32 25 31
65 66 69 72 75 80 86 90 94 100 103 105 109 111 114 118 120 122 121 121 119 115 113 109 109 110 101 94 89 85 83 80 75 71 73 73 69 67 72 80 78 68 56 47 37 25 29
70 68 67 70 76 83 91 96 98 101 105 110 113 118 120 120 121 121 121 119 115 113 112 110 106 104 92 89 88 91 85 78 77 77 72 70 69 58 43 47 45 95 151 51 30 23 19
70 68 65 63 65 77 90 100 105 109 113 116 119 122 122 122 123 123 121 118 114 117 112 105 105 98 92 90 90 88 79 75 65 66 60 55 47 44 42 43 211 52 48 37 12 21 10
71 68 64 64 60 66 82 97 111 116 120 122 124 127 127 125 124 121 117 118 122 119 113 109 105 96 87 87 83 74 77 67 68 63 56 49 47 35 27 26 25 15 5 358 3 14 6
65 67 64 61 64 66 75 88 110 120 125 127 129 130 129 126 125 122 118 119 122 120 113 109 104 92 82 74 81 83 70 65 64 57 40 28 45 28 21 23 22 12 347 342 346 356 358
64 61 61 61 61 66 74 84 107 122 127 131 134 136 135 133 131 129 129 132 129 118 114 112 104 94 82 73 72 72 71 57 53 47 34 26 28 13 11 13 10 6 352 341 351 348 349
57 61 61 62 61 66 73 87 100 124 134 138 141 143 142 138 136 139 135 151 140 121 126 114 107 92 83 77 71 69 65 44 32 15 9 12 8 8 4 358 1 358 353 350 343 341 337
48 59 61 61 62 64 73 90 108 126 145 149 152 153 148 140 141 139 148 157 151 131 142 127 114 96 89 75 63 52 35 23 11 4 1 358 2 7 1 355 350 344 348 352 344 323 334
42 46 64 68 63 63 70 83 110 134 154 166 163 164 160 153 151 152 159 165 160 154 159 141 124 104 99 74 48 31 14 3 359 358 356 354 1 5 1 357 353 345 343 344 351 348 354
19 32 32 53 72 68 63 73 92 126 157 172 179 177 175 170 164 167 169 176 173 166 173 167 159 171 204 343 344 333 334 341 348 351 349 348 352 357 360 358 351 343 323 346 335 353 357
310 295 255 320 112 92 73 62 76 105 147 180 191 194 191 187 187 184 184 192 195 197 195 203 220 241 264 286 296 303 318 327 333 334 333 352 344 347 350 347 347 350 341 327 336 354 356
280 281 270 254 249 217 157 90 51 74 109 166 195 208 209 206 205 209 209 210 218 222 223 233 245 260 266 276 292 303 312 314 323 334 338 340 346 339 340 341 342 342 338 331 341 345 341
270 269 264 257 256 243 239 218 205 125 95 131 192 207 218 221 222 227 231 235 245 246 244 250 257 264 266 283 291 298 310 318 321 325 332 334 338 328 330 331 335 338 335 335 329 324 331
279 248 255 255 256 257 244 238 230 225 231 226 216 222 225 227 231 237 241 246 249 255 258 262 270 276 283 285 290 295 304 307 310 315 320 326 333 327 329 325 331 328 332 329 320 318 327
284 251 243 251 247 253 254 246 244 239 238 242 243 248 241 238 237 238 243 245 249 261 264 268 275 277 281 292 294 296 299 307 304 307 314 319 328 328 331 326 329 330 331 333 326 324 313
273 266 254 251 245 241 252 255 252 254 247 246 246 252 254 255 257 252 254 260 254 248 262 267 272 276 280 286 286 287 292 300 300 301 306 312 319 323 326 324 329 338 333 330 322 319 308
254 265 266 240 239 243 242 256 256 259 259 254 251 256 253 255 260 263 265 264 265 268 265 270 271 274 276 279 283 283 289 289 293 297 301 304 310 315 318 321 327 331 326 320 319 314 303
241 253 265 251 227 247 253 249 258 259 265 262 257 261 260 253 256 267 271 274 274 276 277 278 279 279 279 282 285 287 289 287 286 289 293 297 304 306 313 316 320 328 324 327 331 314 304
239 236 249 259 243 237 247 252 253 257 261 267 267 261 263 265 264 266 270 273 275 276 284 280 281 281 286 288 290 296 300 296 288 289 291 295 301 301 310 308 315 324 321 324 329 319 313
240 238 238 248 250 243 246 250 254 257 262 264 269 267 263 264 272 278 280 278 277 279 278 282 286 287 289 292 295 293 302 306 305 285 289 298 301 301 311 305 313 317 318 330 336 324 321
243 239 238 240 250 247 243 250 255 258 257 263 268 273 272 269 271 273 280 283 280 277 277 277 285 287 300 294 289 294 294 302 306 304 295 295 293 299 311 305 307 312 317 326 337 331 323
242 241 239 236 240 248 245 244 253 258 260 257 261 267 271 277 277 279 280 281 286 280 275 268 284 291 290 297 292 289 289 294 299 307 311 306 301 302 312 305 313 313 318 327 336 324 328
240 240 241 240 237 242 245 246 248 253 258 259 262 261 263 268 276 278 282 283 289 287 272 270 266 284 295 295 290 284 283 292 296 301 305 307 309 308 312 310 320 306 317 327 329 327 327
236 238 239 241 241 241 243 245 246 249 252 257 260 259 262 266 275 279 280 282 290 289 278 268 267 273 289 294 291 284 281 283 291 292 285 293 303 310 308 310 323 308 322 321 322 327 316
238 237 237 237 240 240 243 244 246 249 250 253 260 262 263 266 272 272 286 282 285 292 282 264 267 273 276 285 292 286 278 285 295 293 291 295 294 304 304 311 314 314 321 325 329 326 326
238 237 237 238 239 241 241 245 246 247 249 250 255 261 265 262 266 272 272 280 281 283 282 270 267 273 274 279 279 278 279 279 286 289 296 296 304 295 297 300 302 312 315 289 313 330 325
238 237 237 238 240 242 243 244 249 250 251 251 253 256 260 265 266 269 270 271 274 279 278 279 275 275 277 280 280 277 278 278 278 281 285 295 296 294 291 294 297 311 305 269 282 303 308
Height
5799 5799 5798 5798 5798 5797 5797 5798 5799 5799 5800 5801 5802 5803 5804 5806 5808 5810 5812 5814 5817 5819 5821 5823 5825 5827 5830 5830 5833 5832 5832 5833 5833 5833 5834 5833 5833 5833 5833 5832 5832 5832 5832 5831 5830 5830 5829
5804 5803 5802 5802 5802 5802 5801 5801 5802 5803 5803 5804 5805 5806 5807 5809 5811 5813 5815 5818 5820 5822 5825 5826 5828 5830 5833 5834 5835 5835 5834 5835 5836 5835 5835 5835 5834 5834 5834 5833 5833 5833 5832 5832 5831 5830 5829
5808 5807 5806 5806 5805 5805 5805 5805 5805 5806 5807 5808 5809 5810 5811 5813 5815 5817 5819 5822 5824 5826 5828 5829 5832 5835 5836 5837 5837 5837 5837 5838 5838 5837 5837 5836 5836 5835 5835 5834 5833 5833 5833 5833 5832 5830 5831
5811 5811 5811 5810 5809 5808 5807 5807 5808 5808 5809 5811 5812 5813 5815 5817 5819 5821 5823 5825 5827 5829 5831 5834 5836 5838 5838 5838 5839 5840 5841 5841 5840 5840 5839 5839 5838 5837 5836 5835 5834 5834 5835 5833 5831 5830 5829
5814 5813 5813 5813 5812 5811 5810 5810 5810 5811 5812 5814 5815 5817 5819 5822 5823 5825 5828 5829 5831 5833 5835 5837 5840 5841 5841 5842 5843 5843 5843 5843 5843 5842 5841 5840 5839 5839 5838 5837 5835 5834 5832 5831 5831 5829 5826
5817 5816 5816 5815 5815 5814 5813 5813 5813 5814 5815 5817 5819 5822 5824 5826 5828 5830 5832 5834 5835 5837 5839 5840 5843 5845 5844 5845 5845 5846 5845 5846 5845 5845 5846 5844 5842 5839 5836 5835 5833 5832 5831 5832 5830 5829 5825
5820 5819 5819 5818 5817 5816 5817 5817 5817 5817 5819 5821 5824 5826 5828 5830 5832 5833 5835 5838 5841 5842 5842 5843 5845 5846 5847 5848 5847 5847 5848 5849 5849 5846 5845 5843 5840 5841 5839 5836 5835 5833 5832 5831 5829 5827 5825
5823 5822 5821 5821 5820 5819 5819 5820 5821 5822 5823 5825 5827 5829 5831 5833 5835 5836 5837 5840 5841 5844 5844 5846 5847 5848 5849 5849 5850 5849 5850 5852 5849 5847 5847 5845 5842 5841 5839 5837 5835 5834 5832 5830 5827 5825 5822
5826 5825 5825 5823 5823 5822 5822 5822 5824 5825 5826 5828 5830 5832 5834 5836 5837 5839 5839 5843 5843 5844 5847 5848 5849 5850 5851 5852 5851 5851 5851 5850 5849 5848 5846 5844 5843 5841 5839 5837 5836 5833 5831 5828 5826 5825 5821
5828 5827 5827 5826 5825 5824 5824 5824 5826 5828 5829 5830 5832 5834 5836 5838 5841 5841 5843 5844 5845 5846 5849 5850 5851 5852 5852 5853 5853 5852 5852 5851 5849 5848 5846 5845 5843 5841 5838 5837 5835 5832 5829 5827 5825 5823 5820
5828 5828 5828 5828 5828 5827 5826 5826 5827 5828 5831 5833 5833 5835 5837 5839 5840 5841 5844 5845 5846 5848 5850 5852 5852 5853 5853 5854 5854 5853 5852 5850 5849 5847 5847 5845 5842 5839 5838 5836 5833 5831 5828 5826 5823 5820 5817
5828 5829 5830 5830 5829 5829 5828 5828 5828 5829 5831 5833 5835 5836 5837 5839 5841 5843 5844 5846 5848 5850 5850 5851 5851 5852 5853 5853 5853 5852 5851 5849 5848 5846 5844 5843 5841 5839 5837 5834 5831 5829 5827 5824 5822 5818 5815
5829 5829 5829 5830 5830 5830 5830 5829 5829 5829 5831 5833 5835 5836 5837 5839 5841 5843 5844 5846 5848 5848 5850 5851 5851 5852 5852 5852 5851 5851 5850 5848 5847 5846 5844 5844 5841 5837 5835 5833 5830 5827 5824 5821 5819 5815 5812
5828 5829 5829 5829 5831 5830 5830 5831 5831 5830 5831 5832 5834 5836 5838 5838 5840 5841 5843 5846 5846 5847 5849 5849 5850 5850 5850 5850 5849 5848 5847 5848 5845 5843 5842 5839 5838 5836 5834 5831 5828 5825 5822 5819 5816 5814 5812
5826 5828 5828 5828 5829 5830 5831 5831 5831 5832 5831 5832 5833 5834 5836 5838 5839 5840 5843 5844 5845 5846 5847 5847 5847 5848 5847 5847 5847 5846 5845 5844 5843 5842 5841 5838 5837 5833 5830 5828 5826 5822 5819 5817 5814 5812 5809
5826 5825 5827 5827 5828 5829 5829 5829 5830 5830 5831 5831 5832 5833 5834 5835 5836 5838 5840 5841 5843 5843 5844 5844 5844 5845 5842 5845 5844 5843 5843 5842 5841 5839 5837 5836 5834 5832 5829 5826 5823 5821 5818 5815 5812 5809 5807
5824 5824 5824 5826 5826 5827 5828 5828 5829 5829 5830 5831 5831 5831 5832 5833 5834 5835 5837 5837 5840 5840 5841 5841 5841 5841 5840 5839 5840 5838 5840 5840 5837 5836 5834 5832 5831 5829 5827 5823 5821 5818 5814 5812 5809 5806 5803
5822 5822 5822 5823 5824 5825 5826 5827 5827 5828 5828 5829 5830 5831 5830 5831 5833 5832 5833 5835 5836 5836 5836 5837 5837 5837 5837 5836 5836 5834 5835 5834 5833 5832 5831 5829 5827 5824 5823 5820 5817 5814 5809 5806 5804 5803 5799
5820 5820 5820 5819 5821 5823 5824 5825 5826 5826 5827 5828 5828 5828 5829 5829 5830 5830 5831 5831 5831 5832 5832 5832 5832 5833 5833 5831 5831 5829 5829 5830 5828 5827 5826 5825 5823 5821 5819 5817 5813 5811 5809 5806 5802 5799 5797
5817 5817 5818 5817 5817 5819 5821 5822 5823 5824 5824 5825 5826 5826 5826 5827 5827 5827 5828 5828 5828 5828 5828 5828 5828 5827 5826 5826 5825 5823 5823 5824 5823 5822 5820 5819 5818 5816 5816 5813 5809 5807 5803 5799 5798 5796 5793
5813 5813 5814 5815 5814 5814 5816 5818 5819 5820 5821 5823 5822 5823 5823 5823 5824 5824 5824 5824 5824 5825 5824 5824 5823 5822 5822 5822 5820 5819 5818 5818 5818 5816 5815 5814 5813 5811 5812 5808 5806 5804 5800 5797 5793 5792 5790
5808 5810 5810 5811 5811 5811 5812 5814 5815 5816 5817 5818 5818 5819 5820 5820 5820 5821 5821 5820 5820 5820 5821 5819 5819 5818 5818 5816 5816 5814 5813 5812 5812 5813 5810 5810 5808 5806 5808 5804 5802 5801 5797 5794 5791 5787 5786
5803 5805 5806 5807 5809 5808 5808 5809 5811 5811 5813 5814 5814 5815 5816 5816 5816 5816 5816 5816 5815 5815 5815 5814 5815 5814 5813 5813 5810 5810 5809 5807 5806 5807 5806 5805 5803 5801 5802 5799 5798 5798 5795 5792 5789 5786 5782
5797 5799 5800 5801 5802 5804 5804 5805 5806 5807 5808 5809 5809 5810 5811 5812 5812 5812 5812 5811 5811 5811 5810 5811 5810 5809 5809 5807 5806 5806 5805 5804 5803 5801 5801 5800 5799 5797 5797 5795 5795 5792 5791 5789 5787 5783 5780
5787 5791 5794 5796 5796 5798 5799 5800 5801 5802 5803 5804 5804 5805 5806 5806 5806 5806 5806 5806 5805 5805 5805 5804 5807 5804 5804 5803 5802 5802 5801 5801 5799 5798 5797 5795 5794 5792 5792 5791 5792 5787 5787 5785 5783 5781 5775
5777 5781 5785 5789 5790 5791 5794 5794 5794 5796 5797 5799 5798 5799 5800 5801 5800 5801 5800 5801 5801 5799 5799 5801 5801 5799 5799 5798 5798 5797 5796 5795 5795 5795 5793 5792 5789 5789 5787 5786 5785 5782 5783 5780 5778 5776 5772
5768 5771 5775 5779 5782 5784 5786 5787 5788 5789 5790 5793 5793 5794 5794 5795 5793 5794 5795 5795 5795 5794 5794 5796 5794 5794 5794 5793 5793 5792 5792 5790 5789 5789 5788 5787 5786 5784 5781 5781 5783 5779 5776 5775 5774 5775 5769
5757 5760 5764 5769 5772 5775 5777 5779 5781 5781 5782 5784 5785 5788 5789 5789 5788 5789 5787 5789 5789 5789 5789 5792 5791 5789 5789 5788 5788 5787 5787 5786 5785 5782 5782 5781 5781 5779 5777 5775 5776 5776 5775 5773 5769 5766 5764
5746 5749 5753 5757 5762 5765 5768 5770 5773 5774 5774 5776 5778 5778 5780 5783 5783 5783 5783 5781 5782 5784 5783 5785 5785 5784 5783 5783 5783 5783 5782 5782 5781 5779 5776 5774 5775 5773 5772 5773 5769 5769 5769 5767 5764 5763 5760